N7QNM-13 Weather Reports


Display with metric or nautical units.
time (UTC)temp
F
wind
direction
speed
MPH
gust
MPH
rain 1hr
in
rain 24hr
in
rain mn
in
humidity
%
barometer
mb
20260510132539 45 0.0 0.0 0.00 0.00 0.00 85 1014.4
20260510131539 44 0.0 0.0 0.00 0.00 0.00 85 1014.2
20260510130539 43 0.0 0.0 0.00 0.00 0.00 84 1014.1
20260510125539 43 116 0.0 1.0 0.00 0.00 0.00 83 1014.0
20260510124540 43 0.0 0.0 0.00 0.00 0.00 83 1014.0
20260510123540 43 240 0.0 2.0 0.00 0.00 0.00 82 1013.9
20260510122540 43 0.0 0.0 0.00 0.00 0.00 82 1013.8
20260510121540 44 324 0.0 1.0 0.00 0.00 0.00 82 1013.8
20260510120540 43 0.0 0.0 0.00 0.00 0.00 81 1014.0
20260510115600 43 0.0 0.0 0.00 0.00 0.00 81 1014.0
20260510114541 43 0.0 0.0 0.00 0.00 0.00 80 1014.0
20260510113540 44 0.0 0.0 0.00 0.00 0.00 80 1014.0
20260510112542 44 0.0 0.0 0.00 0.00 0.00 79 1014.0
20260510111546 44 0.0 0.0 0.00 0.00 0.00 79 1014.2
20260510110541 45 51 0.0 1.0 0.00 0.00 0.00 78 1014.1
20260510105541 45 0.0 0.0 0.00 0.00 0.00 78 1014.1
20260510104601 45 0.0 0.0 0.00 0.00 0.00 78 1014.2
20260510103541 45 243 0.0 2.0 0.00 0.00 0.00 77 1014.2
20260510102541 46 0.0 0.0 0.00 0.00 0.00 76 1014.3
20260510101541 47 0.0 0.0 0.00 0.00 0.00 76 1014.3
20260510100541 46 0.0 0.0 0.00 0.00 0.00 76 1014.4
20260510095541 47 162 0.0 0.0 0.00 0.00 0.00 75 1014.4
20260510094601 47 83 0.0 1.0 0.00 0.00 0.00 74 1014.5
20260510093542 48 0.0 0.0 0.00 0.00 0.00 74 1014.5
20260510092541 49 0.0 0.0 0.00 0.00 0.00 73 1014.6
20260510091542 49 90 0.0 1.0 0.00 0.00 0.00 72 1014.7
20260510090602 50 120 0.0 1.0 0.00 0.00 0.00 72 1014.8
20260510085542 50 148 0.0 1.0 0.00 0.00 0.00 70 1014.8
20260510084602 50 0.0 0.0 0.00 0.00 0.00 70 1014.7
20260510083544 50 194 0.0 1.0 0.00 0.00 0.00 69 1014.7
20260510082542 51 168 0.0 1.0 0.00 0.00 0.00 69 1014.7
20260510081542 52 117 0.0 2.0 0.00 0.00 0.00 68 1014.8
20260510080543 52 87 0.0 3.0 0.00 0.00 0.00 68 1014.7
20260510075543 51 160 1.0 2.0 0.00 0.00 0.00 69 1014.9
20260510074543 51 166 0.0 2.0 0.00 0.00 0.00 71 1014.9
20260510073543 51 238 2.0 3.0 0.00 0.00 0.00 72 1014.9
20260510072603 51 252 2.0 4.0 0.00 0.00 0.00 70 1014.8
20260510071543 51 0.0 0.0 0.00 0.00 0.00 69 1014.7
20260510070543 51 0.0 0.0 0.00 0.00 0.00 68 1014.7
20260510065543 52 0.0 0.0 0.00 0.00 0.00 67 1014.7
20260510064545 53 115 0.0 2.0 0.00 0.00 0.00 65 1014.8
20260510063544 53 150 0.0 1.0 0.00 0.00 0.00 64 1014.9
20260510062544 54 150 0.0 2.0 0.00 0.00 0.00 63 1014.8
20260510061544 55 120 0.0 2.0 0.00 0.00 0.00 61 1014.8
20260510060544 57 0.0 0.0 0.00 0.00 0.00 59 1014.9
20260510055544 58 117 0.0 2.0 0.00 0.00 0.00 56 1014.9
20260510054544 59 0.0 0.0 0.00 0.00 0.00 56 1014.9
20260510053545 60 164 0.0 0.0 0.00 0.00 0.00 55 1014.8
20260510052545 61 0.0 0.0 0.00 0.00 0.00 53 1014.8
20260510051544 62 141 0.0 2.0 0.00 0.00 0.00 52 1014.8
20260510050545 62 104 0.0 2.0 0.00 0.00 0.00 52 1015.0
20260510045545 63 94 0.0 2.0 0.00 0.00 0.00 51 1015.1
20260510044545 64 116 1.0 3.0 0.00 0.00 0.00 50 1015.1
20260510043545 65 0.0 0.0 0.00 0.00 0.00 48 1015.2
20260510042545 65 0.0 0.0 0.00 0.00 0.00 47 1015.1
20260510041605 66 0.0 0.0 0.00 0.00 0.00 45 1015.0
20260510040545 67 87 1.0 4.0 0.00 0.00 0.00 43 1014.9
20260510035605 69 92 1.0 4.0 0.00 0.00 0.00 41 1014.9
20260510034545 70 61 0.0 4.0 0.00 0.00 0.00 40 1014.9
20260510033546 70 75 1.0 3.0 0.00 0.00 0.00 38 1015.0
20260510032606 70 61 2.0 7.0 0.00 0.00 0.00 38 1014.9
20260510031546 70 55 3.0 6.0 0.00 0.00 0.00 40 1014.9
20260510030546 71 63 3.0 8.0 0.00 0.00 0.00 39 1014.8
20260510025547 71 66 3.0 7.0 0.00 0.00 0.00 39 1014.8
20260510024546 72 92 2.0 5.0 0.00 0.00 0.00 41 1014.9
20260510023547 72 69 1.0 4.0 0.00 0.00 0.00 42 1014.8
20260510022546 73 56 2.0 7.0 0.00 0.00 0.00 42 1014.7
20260510021547 74 55 5.0 11.0 0.00 0.00 0.00 40 1014.6
20260510020547 75 39 3.0 9.0 0.00 0.00 0.00 41 1014.7
20260510015547 76 55 2.0 8.0 0.00 0.00 0.00 38 1014.8
20260510014547 76 58 4.0 10.0 0.00 0.00 0.00 38 1014.8
20260510013547 77 59 4.0 10.0 0.00 0.00 0.00 38 1014.9
20260510012547 77 38 3.0 7.0 0.00 0.00 0.00 38 1014.9
20260510011547 78 40 3.0 6.0 0.00 0.00 0.00 30 1014.9
20260510010547 78 41 1.0 4.0 0.00 0.00 0.00 27 1015.0
20260510005547 78 26 0.0 2.0 0.00 0.00 0.00 26 1015.0
20260510004548 79 31 1.0 4.0 0.00 0.00 0.00 26 1015.1
20260510003548 78 41 2.0 5.0 0.00 0.00 0.00 26 1015.2
20260510002548 78 40 2.0 6.0 0.00 0.00 0.00 27 1015.3
20260510001548 78 41 2.0 7.0 0.00 0.00 0.00 27 1015.3
20260510000548 79 42 1.0 4.0 0.00 0.00 0.00 26 1015.5
20260509235548 79 47 2.0 6.0 0.00 0.00 0.00 27 1015.6
20260509234548 78 43 2.0 7.0 0.00 0.00 0.00 28 1015.6
20260509233548 78 29 3.0 6.0 0.00 0.00 0.00 29 1015.7
20260509232549 78 32 1.0 3.0 0.00 0.00 0.00 30 1015.8
20260509231549 78 35 2.0 7.0 0.00 0.00 0.00 30 1015.9
20260509230549 78 32 2.0 7.0 0.00 0.00 0.00 31 1016.0
20260509225609 78 21 1.0 7.0 0.00 0.00 0.00 32 1016.1
20260509224549 77 353 1.0 5.0 0.00 0.00 0.00 33 1016.3
20260509223609 77 320 0.0 3.0 0.00 0.00 0.00 33 1016.5
20260509222550 77 343 1.0 4.0 0.00 0.00 0.00 35 1016.6
20260509221550 77 320 2.0 6.0 0.00 0.00 0.00 35 1016.8
20260509220550 77 320 2.0 5.0 0.00 0.00 0.00 35 1017.0
20260509215550 77 338 1.0 3.0 0.00 0.00 0.00 35 1017.1
20260509214550 77 40 2.0 7.0 0.00 0.00 0.00 36 1017.2
20260509213550 77 44 2.0 9.0 0.00 0.00 0.00 37 1017.3
20260509212610 77 34 3.0 8.0 0.00 0.00 0.00 37 1017.4
20260509211610 77 173 3.0 7.0 0.00 0.00 0.00 38 1017.4
20260509210610 76 115 1.0 9.0 0.00 0.00 0.00 38 1017.5
20260509205550 76 129 3.0 10.0 0.00 0.00 0.00 39 1017.6
20260509204551 75 320 3.0 7.0 0.00 0.00 0.00 38 1017.7
20260509203611 74 38 2.0 8.0 0.00 0.00 0.00 39 1017.8
20260509202611 74 44 3.0 9.0 0.00 0.00 0.00 39 1017.9
20260509201551 74 55 3.0 11.0 0.00 0.00 0.00 39 1018.0
20260509200551 74 37 3.0 9.0 0.00 0.00 0.00 39 1018.1
20260509195551 74 55 0.0 3.0 0.00 0.00 0.00 40 1018.3
20260509194551 73 58 2.0 6.0 0.00 0.00 0.00 41 1018.3
20260509193552 72 21 2.0 7.0 0.00 0.00 0.00 42 1018.5
20260509192611 72 52 1.0 7.0 0.00 0.00 0.00 42 1018.7
20260509191552 71 29 2.0 10.0 0.00 0.00 0.00 44 1018.8
20260509190552 71 4 2.0 7.0 0.00 0.00 0.00 44 1018.9
20260509185553 70 39 2.0 9.0 0.00 0.00 0.00 45 1018.9
20260509184553 70 2 2.0 7.0 0.00 0.00 0.00 45 1019.0
20260509183553 70 34 1.0 6.0 0.00 0.00 0.00 47 1019.0
20260509182553 70 1 0.0 3.0 0.00 0.00 0.00 48 1019.2
20260509181553 70 327 1.0 3.0 0.00 0.00 0.00 47 1019.4
20260509180554 69 292 1.0 6.0 0.00 0.00 0.00 49 1019.5
20260509175556 69 43 2.0 9.0 0.00 0.00 0.00 49 1019.5
20260509174554 68 294 2.0 6.0 0.00 0.00 0.00 47 1019.6
20260509173554 67 280 4.0 7.0 0.00 0.00 0.00 47 1019.7
20260509172554 66 257 3.0 5.0 0.00 0.00 0.00 48 1019.8
20260509171554 66 298 2.0 6.0 0.00 0.00 0.00 49 1019.9
20260509170554 65 290 3.0 8.0 0.00 0.00 0.00 49 1020.1
20260509165554 64 289 4.0 9.0 0.00 0.00 0.00 51 1020.1
20260509164555 64 294 5.0 9.0 0.00 0.00 0.00 50 1020.1
20260509163555 64 310 0.0 4.0 0.00 0.00 0.00 51 1020.1
20260509162555 63 256 3.0 9.0 0.00 0.00 0.00 51 1019.9
20260509161605 62 308 1.0 6.0 0.00 0.00 0.00 53 1019.9
20260509160555 61 302 4.0 9.0 0.00 0.00 0.00 54 1020.0
20260509155555 61 298 3.0 7.0 0.00 0.00 0.00 55 1020.1
20260509154616 61 300 4.0 7.0 0.00 0.00 0.00 56 1020.3
20260509153555 61 301 1.0 6.0 0.00 0.00 0.00 56 1020.3
20260509152555 60 301 1.0 8.0 0.00 0.00 0.00 57 1020.3
20260509151556 59 270 5.0 9.0 0.00 0.00 0.00 58 1020.3
20260509150555 59 247 2.0 5.0 0.00 0.00 0.00 60 1020.4
20260509145556 58 246 2.0 4.0 0.00 0.00 0.00 62 1020.5
20260509144555 56 215 0.0 2.0 0.00 0.00 0.00 66 1020.5
20260509143616 53 210 0.0 3.0 0.00 0.00 0.00 70 1020.4
20260509142556 52 263 5.0 6.0 0.00 0.00 0.00 71 1020.2
20260509141556 52 236 5.0 7.0 0.00 0.00 0.00 72 1020.1
20260509140556 52 152 1.0 3.0 0.00 0.00 0.00 75 1020.1
20260509135556 50 0.0 0.0 0.00 0.00 0.00 77 1020.1
20260509134556 49 108 0.0 3.0 0.00 0.00 0.00 79 1020.0
20260509133556 48 141 0.0 2.0 0.00 0.00 0.00 78 1019.8